TimeEDT,TemperatureF,Dew PointF,Humidity,Sea Level PressureIn,VisibilityMPH,Wind Direction,Wind SpeedMPH,Gust SpeedMPH,PrecipitationIn,Events,Conditions,WindDirDegrees,DateUTC
12:56 AM,53.1,39.9,61,29.87,10.0,WNW,9.2,-,N/A,,Partly Cloudy,290,2012-11-02 04:56:00
1:56 AM,51.1,39.9,66,29.88,10.0,WNW,10.4,-,N/A,,Clear,290,2012-11-02 05:56:00
2:56 AM,50.0,39.9,68,29.88,10.0,West,6.9,-,N/A,,Clear,280,2012-11-02 06:56:00
3:56 AM,50.0,37.9,63,29.87,10.0,WNW,6.9,-,N/A,,Clear,290,2012-11-02 07:56:00
4:56 AM,48.0,39.9,74,29.88,10.0,WSW,4.6,-,N/A,,Clear,240,2012-11-02 08:56:00
5:56 AM,43.0,39.9,89,29.89,10.0,SW,5.8,-,N/A,,Clear,220,2012-11-02 09:56:00
6:56 AM,46.0,41.0,83,29.91,10.0,WSW,8.1,-,N/A,,Clear,240,2012-11-02 10:56:00
7:56 AM,48.0,37.9,68,29.91,10.0,WNW,9.2,-,N/A,,Clear,290,2012-11-02 11:56:00
8:56 AM,53.1,37.0,55,29.93,10.0,West,11.5,-,N/A,,Clear,270,2012-11-02 12:56:00
9:56 AM,55.0,36.0,49,29.93,10.0,West,9.2,-,N/A,,Clear,260,2012-11-02 13:56:00
10:56 AM,57.9,32.0,37,29.92,10.0,West,6.9,-,N/A,,Clear,260,2012-11-02 14:56:00
11:56 AM,62.1,34.0,35,29.90,10.0,WSW,9.2,-,N/A,,Clear,250,2012-11-02 15:56:00
12:56 PM,64.9,36.0,34,29.85,10.0,SW,13.8,20.7,N/A,,Clear,220,2012-11-02 16:56:00
1:56 PM,64.0,37.0,37,29.81,10.0,SW,15.0,26.5,N/A,,Partly Cloudy,220,2012-11-02 17:56:00
2:56 PM,64.9,39.0,39,29.80,10.0,SW,13.8,25.3,N/A,,Clear,230,2012-11-02 18:56:00
3:56 PM,64.9,39.9,40,29.81,10.0,WSW,13.8,19.6,N/A,,Clear,250,2012-11-02 19:56:00
4:56 PM,64.0,39.0,40,29.82,10.0,WSW,9.2,-,N/A,,Clear,250,2012-11-02 20:56:00
5:56 PM,59.0,43.0,55,29.85,10.0,North,8.1,-,N/A,,Mostly Cloudy,360,2012-11-02 21:56:00
6:56 PM,57.9,44.1,60,29.89,10.0,North,4.6,-,N/A,,Clear,360,2012-11-02 22:56:00
7:56 PM,55.9,45.0,67,29.91,10.0,NNW,5.8,-,N/A,,Clear,340,2012-11-02 23:56:00
8:56 PM,55.0,43.0,64,29.94,10.0,NNW,4.6,-,N/A,,Clear,340,2012-11-03 00:56:00
9:56 PM,55.0,42.1,62,29.95,10.0,NW,3.5,-,N/A,,Clear,320,2012-11-03 01:56:00
10:56 PM,55.0,41.0,59,29.97,10.0,Calm,Calm,-,N/A,,Clear,0,2012-11-03 02:56:00
11:56 PM,54.0,44.1,69,29.96,10.0,WSW,3.5,-,N/A,,Clear,250,2012-11-03 03:56:00